Location: Unspecified
(0.0000°N, 0.0000°E)
Time: 23:27:57

Hubble Space Telescope - Pass Details

Date: 04 February 2013
Orbit: 539 x 542 km, 28.5° (Epoch: 27 October)

Event Time Altitude Azimuth Distance (km) Brightness Sun altitude
Rises 19:18:30 0° 230° (SW) 2,676 5.6 -15.5°
Reaches altitude 10° 19:20:49 10° 224° (SW) 1,784 4.4 -16.0°
Maximum altitude 19:24:48 46° 150° (SSE) 718 1.2 -17.0°
Enters shadow 19:26:06 34° 101° (ESE) 897 1.4 -17.3°
